000000,18.1836, 06 Nov 2015, 00:00:35
000030,18.1843, 06 Nov 2015, 00:01:05
000100,18.1859, 06 Nov 2015, 00:01:35
000130,18.1874, 06 Nov 2015, 00:02:06
000200,18.1902, 06 Nov 2015, 00:02:36
000230,18.1922, 06 Nov 2015, 00:03:05
000300,18.1956, 06 Nov 2015, 00:03:35
000330,18.1975, 06 Nov 2015, 00:04:05
000400,18.1998, 06 Nov 2015, 00:04:35
000430,18.2007, 06 Nov 2015, 00:05:06
000500,18.201, 06 Nov 2015, 00:05:35
000530,18.2004, 06 Nov 2015, 00:06:05
000600,18.201, 06 Nov 2015, 00:06:35
000630,18.2021, 06 Nov 2015, 00:07:05
000700,18.2036, 06 Nov 2015, 00:07:36
000730,18.2066, 06 Nov 2015, 00:08:05
000800,18.2082, 06 Nov 2015, 00:08:36
000830,18.2098, 06 Nov 2015, 00:09:06
000900,18.21, 06 Nov 2015, 00:09:36
000930,18.2118, 06 Nov 2015, 00:10:06
001000,18.2128, 06 Nov 2015, 00:10:36
001030,18.2131, 06 Nov 2015, 00:11:06
001100,18.2124, 06 Nov 2015, 00:11:36
001130,18.2125, 06 Nov 2015, 00:12:06
001200,18.213, 06 Nov 2015, 00:12:36
001230,18.2137, 06 Nov 2015, 00:13:06
001300,18.2142, 06 Nov 2015, 00:13:36
001330,18.2144, 06 Nov 2015, 00:14:06
001400,18.2153, 06 Nov 2015, 00:14:36
001430,18.2152, 06 Nov 2015, 00:15:06
001500,18.2168, 06 Nov 2015, 00:15:36
001530,18.2175, 06 Nov 2015, 00:16:06
001600,18.2175, 06 Nov 2015, 00:16:36
001630,18.219, 06 Nov 2015, 00:17:06
001700,18.2208, 06 Nov 2015, 00:17:36
001730,18.2217, 06 Nov 2015, 00:18:06
001800,18.2215, 06 Nov 2015, 00:18:36
001830,18.2209, 06 Nov 2015, 00:19:06
001900,18.2205, 06 Nov 2015, 00:19:35
001930,18.2213, 06 Nov 2015, 00:20:06
002000,18.2231, 06 Nov 2015, 00:20:36
002030,18.2247, 06 Nov 2015, 00:21:06
002100,18.226, 06 Nov 2015, 00:21:35
002130,18.2277, 06 Nov 2015, 00:22:05
002200,18.2296, 06 Nov 2015, 00:22:36
002230,18.2302, 06 Nov 2015, 00:23:06
002300,18.2311, 06 Nov 2015, 00:23:36
002330,18.2323, 06 Nov 2015, 00:24:05
002400,18.2336, 06 Nov 2015, 00:24:36
002430,18.2336, 06 Nov 2015, 00:25:06
002500,18.2332, 06 Nov 2015, 00:25:36
002530,18.2325, 06 Nov 2015, 00:26:06
002600,18.2303, 06 Nov 2015, 00:26:35
002630,18.2284, 06 Nov 2015, 00:27:06
002700,18.2257, 06 Nov 2015, 00:27:36
002730,18.2243, 06 Nov 2015, 00:28:06
002800,18.2237, 06 Nov 2015, 00:28:35
002830,18.2234, 06 Nov 2015, 00:29:05
002900,18.2235, 06 Nov 2015, 00:29:36
002930,18.2248, 06 Nov 2015, 00:30:06
003000,18.2269, 06 Nov 2015, 00:30:36
003030,18.231, 06 Nov 2015, 00:31:05
003100,18.2361, 06 Nov 2015, 00:31:35
003130,18.2408, 06 Nov 2015, 00:32:06
003200,18.2469, 06 Nov 2015, 00:32:36
003230,18.2577, 06 Nov 2015, 00:33:05
003300,18.276, 06 Nov 2015, 00:33:35
003330,18.2952, 06 Nov 2015, 00:34:05
003400,18.314, 06 Nov 2015, 00:34:36
003430,18.3328, 06 Nov 2015, 00:35:06
003500,18.3528, 06 Nov 2015, 00:35:35
003530,18.3737, 06 Nov 2015, 00:36:05
003600,18.3945, 06 Nov 2015, 00:36:36
003630,18.4157, 06 Nov 2015, 00:37:06
003700,18.4375, 06 Nov 2015, 00:37:36
003730,18.4615, 06 Nov 2015, 00:38:05
003800,18.4876, 06 Nov 2015, 00:38:35
003830,18.5104, 06 Nov 2015, 00:39:06
003900,18.5305, 06 Nov 2015, 00:39:35
003930,18.5512, 06 Nov 2015, 00:40:05
004000,18.5728, 06 Nov 2015, 00:40:35
004030,18.5948, 06 Nov 2015, 00:41:06
004100,18.6183, 06 Nov 2015, 00:41:36
004130,18.6418, 06 Nov 2015, 00:42:05
004200,18.6672, 06 Nov 2015, 00:42:35
004230,18.692, 06 Nov 2015, 00:43:05
004300,18.7152, 06 Nov 2015, 00:43:36
004330,18.7378, 06 Nov 2015, 00:44:05
004400,18.7599, 06 Nov 2015, 00:44:35
004430,18.7812, 06 Nov 2015, 00:45:05
004500,18.8019, 06 Nov 2015, 00:45:36
004530,18.8206, 06 Nov 2015, 00:46:05
004600,18.8383, 06 Nov 2015, 00:46:35
004630,18.856, 06 Nov 2015, 00:47:05
004700,18.873, 06 Nov 2015, 00:47:36
004730,18.8888, 06 Nov 2015, 00:48:06
004800,18.9038, 06 Nov 2015, 00:48:36
004830,18.9171, 06 Nov 2015, 00:49:06
004900,18.9305, 06 Nov 2015, 00:49:36
004930,18.943, 06 Nov 2015, 00:50:06
005000,18.9569, 06 Nov 2015, 00:50:36
005030,18.9704, 06 Nov 2015, 00:51:06
005100,18.9855, 06 Nov 2015, 00:51:36
005130,18.999, 06 Nov 2015, 00:52:06
005200,19.0142, 06 Nov 2015, 00:52:36
005230,19.0265, 06 Nov 2015, 00:53:06
005300,19.0372, 06 Nov 2015, 00:53:36
005330,19.0468, 06 Nov 2015, 00:54:06
005400,19.0566, 06 Nov 2015, 00:54:36
005430,19.0658, 06 Nov 2015, 00:55:06
005500,19.076, 06 Nov 2015, 00:55:36
005530,19.0842, 06 Nov 2015, 00:56:06
005600,19.0922, 06 Nov 2015, 00:56:36
005630,19.0996, 06 Nov 2015, 00:57:06
005700,19.1061, 06 Nov 2015, 00:57:36
005730,19.1121, 06 Nov 2015, 00:58:06
005800,19.1168, 06 Nov 2015, 00:58:36
005830,19.121, 06 Nov 2015, 00:59:05
005900,19.1237, 06 Nov 2015, 00:59:36
005930,19.1258, 06 Nov 2015, 01:00:06
010000,19.128, 06 Nov 2015, 01:00:36
010030,19.1295, 06 Nov 2015, 01:01:06
010100,19.1312, 06 Nov 2015, 01:01:35
010130,19.1306, 06 Nov 2015, 01:02:05
010200,19.1294, 06 Nov 2015, 01:02:36
010230,19.1291, 06 Nov 2015, 01:03:06
010300,19.1299, 06 Nov 2015, 01:03:36
010330,19.13, 06 Nov 2015, 01:04:06
010400,19.1312, 06 Nov 2015, 01:04:35
010430,19.1307, 06 Nov 2015, 01:05:06
010500,19.1305, 06 Nov 2015, 01:05:36
010530,19.1309, 06 Nov 2015, 01:06:06
010600,19.1307, 06 Nov 2015, 01:06:36
010630,19.131, 06 Nov 2015, 01:07:05
010700,19.1304, 06 Nov 2015, 01:07:36
010730,19.1299, 06 Nov 2015, 01:08:06
010800,19.1291, 06 Nov 2015, 01:08:36
010830,19.1288, 06 Nov 2015, 01:09:05
010900,19.1282, 06 Nov 2015, 01:09:35
010930,19.1267, 06 Nov 2015, 01:10:06
011000,19.127, 06 Nov 2015, 01:10:36
011030,19.1262, 06 Nov 2015, 01:11:06
011100,19.125, 06 Nov 2015, 01:11:35
011130,19.1228, 06 Nov 2015, 01:12:05
011200,19.1198, 06 Nov 2015, 01:12:36
011230,19.1162, 06 Nov 2015, 01:13:06
011300,19.114, 06 Nov 2015, 01:13:36
011330,19.1099, 06 Nov 2015, 01:14:05
011400,19.1056, 06 Nov 2015, 01:14:35
011430,19.1008, 06 Nov 2015, 01:15:06
011500,19.0953, 06 Nov 2015, 01:15:36
011530,19.0889, 06 Nov 2015, 01:16:06
011600,19.0829, 06 Nov 2015, 01:16:35
011630,19.0776, 06 Nov 2015, 01:17:05
011700,19.0717, 06 Nov 2015, 01:17:36
011730,19.0664, 06 Nov 2015, 01:18:06
011800,19.0595, 06 Nov 2015, 01:18:36
011830,19.0524, 06 Nov 2015, 01:19:05
011900,19.0431, 06 Nov 2015, 01:19:35
011930,19.0335, 06 Nov 2015, 01:20:05
012000,19.0208, 06 Nov 2015, 01:20:36
012030,19.0083, 06 Nov 2015, 01:21:05
012100,18.9921, 06 Nov 2015, 01:21:35
012130,18.9767, 06 Nov 2015, 01:22:05
012200,18.9599, 06 Nov 2015, 01:22:35
012230,18.9448, 06 Nov 2015, 01:23:06
012300,18.931, 06 Nov 2015, 01:23:35
012330,18.9179, 06 Nov 2015, 01:24:05
012400,18.9038, 06 Nov 2015, 01:24:35
012430,18.8916, 06 Nov 2015, 01:25:06
012500,18.8788, 06 Nov 2015, 01:25:35
012530,18.866, 06 Nov 2015, 01:26:05
012600,18.8538, 06 Nov 2015, 01:26:35
012630,18.8419, 06 Nov 2015, 01:27:06
012700,18.8335, 06 Nov 2015, 01:27:36
012730,18.8293, 06 Nov 2015, 01:28:05
012800,18.8302, 06 Nov 2015, 01:28:35
012830,18.8345, 06 Nov 2015, 01:29:07
012900,18.8406, 06 Nov 2015, 01:29:36
012930,18.8499, 06 Nov 2015, 01:30:06
013000,18.8611, 06 Nov 2015, 01:30:36
013030,18.8754, 06 Nov 2015, 01:31:06
013100,18.8916, 06 Nov 2015, 01:31:36
013130,18.9087, 06 Nov 2015, 01:32:06
013200,18.9261, 06 Nov 2015, 01:32:36
013230,18.9433, 06 Nov 2015, 01:33:06
013300,18.9581, 06 Nov 2015, 01:33:37
013330,18.9713, 06 Nov 2015, 01:34:06
013400,18.9832, 06 Nov 2015, 01:34:36
013430,18.9924, 06 Nov 2015, 01:35:06
013500,18.9997, 06 Nov 2015, 01:35:37
013530,19.0045, 06 Nov 2015, 01:36:06
013600,19.0074, 06 Nov 2015, 01:36:36
013630,19.0094, 06 Nov 2015, 01:37:06
013700,19.0101, 06 Nov 2015, 01:37:36
013730,19.0117, 06 Nov 2015, 01:38:06
013800,19.01, 06 Nov 2015, 01:38:37
013830,19.0084, 06 Nov 2015, 01:39:06
013900,19.0059, 06 Nov 2015, 01:39:36
013930,19.0027, 06 Nov 2015, 01:40:06
014000,18.9999, 06 Nov 2015, 01:40:36
014030,18.9963, 06 Nov 2015, 01:41:05
014100,18.9929, 06 Nov 2015, 01:41:36
014130,18.9899, 06 Nov 2015, 01:42:06
014200,18.9867, 06 Nov 2015, 01:42:36
014230,18.9841, 06 Nov 2015, 01:43:05
014300,18.9817, 06 Nov 2015, 01:43:36
014330,18.9778, 06 Nov 2015, 01:44:06
014400,18.9746, 06 Nov 2015, 01:44:36
014430,18.9713, 06 Nov 2015, 01:45:05
014500,18.9687, 06 Nov 2015, 01:45:36
014530,18.9666, 06 Nov 2015, 01:46:06
014600,18.9644, 06 Nov 2015, 01:46:36
014630,18.9629, 06 Nov 2015, 01:47:06
014700,18.9622, 06 Nov 2015, 01:47:36
014730,18.9632, 06 Nov 2015, 01:48:06
014800,18.9658, 06 Nov 2015, 01:48:36
014830,18.9707, 06 Nov 2015, 01:49:05
014900,18.9751, 06 Nov 2015, 01:49:35
014930,18.9795, 06 Nov 2015, 01:50:06
015000,18.9848, 06 Nov 2015, 01:50:36
015030,18.9908, 06 Nov 2015, 01:51:05
015100,18.9992, 06 Nov 2015, 01:51:35
015130,19.0078, 06 Nov 2015, 01:52:06
015200,19.0125, 06 Nov 2015, 01:52:36
015230,19.0133, 06 Nov 2015, 01:53:06
015300,19.0113, 06 Nov 2015, 01:53:35
015330,19.0074, 06 Nov 2015, 01:54:05
015400,19.0024, 06 Nov 2015, 01:54:35
015430,18.9985, 06 Nov 2015, 01:55:06
015500,18.9953, 06 Nov 2015, 01:55:36
015530,18.993, 06 Nov 2015, 01:56:05
015600,18.9915, 06 Nov 2015, 01:56:35
015630,18.9905, 06 Nov 2015, 01:57:06
015700,18.9894, 06 Nov 2015, 01:57:36
015730,18.9892, 06 Nov 2015, 01:58:06
015800,18.9885, 06 Nov 2015, 01:58:35
015830,18.9891, 06 Nov 2015, 01:59:06
015900,18.9893, 06 Nov 2015, 01:59:36
015930,18.9902, 06 Nov 2015, 02:00:05
020000,18.9927, 06 Nov 2015, 02:00:35
020030,18.995, 06 Nov 2015, 02:01:05
020100,18.9978, 06 Nov 2015, 02:01:36
020130,19.0002, 06 Nov 2015, 02:02:06
020200,19.0023, 06 Nov 2015, 02:02:35
020230,19.0056, 06 Nov 2015, 02:03:05
020300,19.0085, 06 Nov 2015, 02:03:35
020330,19.0108, 06 Nov 2015, 02:04:05
020400,19.0121, 06 Nov 2015, 02:04:36
020430,19.014, 06 Nov 2015, 02:05:06
020500,19.017, 06 Nov 2015, 02:05:35
020530,19.0225, 06 Nov 2015, 02:06:05
020600,19.0294, 06 Nov 2015, 02:06:35
020630,19.0377, 06 Nov 2015, 02:07:05
020700,19.0444, 06 Nov 2015, 02:07:36
020730,19.0485, 06 Nov 2015, 02:08:06
020800,19.051, 06 Nov 2015, 02:08:35
020830,19.0514, 06 Nov 2015, 02:09:06
020900,19.0508, 06 Nov 2015, 02:09:36
020930,19.0501, 06 Nov 2015, 02:10:07
021000,19.0508, 06 Nov 2015, 02:10:36
021030,19.0499, 06 Nov 2015, 02:11:06
021100,19.0489, 06 Nov 2015, 02:11:36
021130,19.0463, 06 Nov 2015, 02:12:06
021200,19.0431, 06 Nov 2015, 02:12:37
021230,19.0397, 06 Nov 2015, 02:13:06
021300,19.0371, 06 Nov 2015, 02:13:36
021330,19.0357, 06 Nov 2015, 02:14:06
021400,19.0352, 06 Nov 2015, 02:14:36
021430,19.0357, 06 Nov 2015, 02:15:06
021500,19.0378, 06 Nov 2015, 02:15:36
021530,19.0407, 06 Nov 2015, 02:16:06
021600,19.044, 06 Nov 2015, 02:16:36
021630,19.0461, 06 Nov 2015, 02:17:06
021700,19.0475, 06 Nov 2015, 02:17:36
021730,19.0482, 06 Nov 2015, 02:18:06
021800,19.0488, 06 Nov 2015, 02:18:36
021830,19.0498, 06 Nov 2015, 02:19:06
021900,19.0506, 06 Nov 2015, 02:19:36
021930,19.0507, 06 Nov 2015, 02:20:05
022000,19.0507, 06 Nov 2015, 02:20:36
022030,19.0517, 06 Nov 2015, 02:21:06
022100,19.052, 06 Nov 2015, 02:21:36
022130,19.052, 06 Nov 2015, 02:22:06
022200,19.0507, 06 Nov 2015, 02:22:36
022230,19.0493, 06 Nov 2015, 02:23:06
022300,19.048, 06 Nov 2015, 02:23:36
022330,19.0456, 06 Nov 2015, 02:24:06
022400,19.0426, 06 Nov 2015, 02:24:36
022430,19.0403, 06 Nov 2015, 02:25:06
022500,19.0401, 06 Nov 2015, 02:25:35
022530,19.0418, 06 Nov 2015, 02:26:06
022600,19.046, 06 Nov 2015, 02:26:36
022630,19.0511, 06 Nov 2015, 02:27:06
022700,19.0588, 06 Nov 2015, 02:27:36
022730,19.0666, 06 Nov 2015, 02:28:05
022800,19.0737, 06 Nov 2015, 02:28:36
022830,19.0804, 06 Nov 2015, 02:29:06
022900,19.0864, 06 Nov 2015, 02:29:36
022930,19.0912, 06 Nov 2015, 02:30:05
023000,19.0939, 06 Nov 2015, 02:30:35
023030,19.0959, 06 Nov 2015, 02:31:06
023100,19.0954, 06 Nov 2015, 02:31:36
023130,19.0951, 06 Nov 2015, 02:32:06
023200,19.0953, 06 Nov 2015, 02:32:35
023230,19.0942, 06 Nov 2015, 02:33:05
023300,19.0942, 06 Nov 2015, 02:33:36
023330,19.0927, 06 Nov 2015, 02:34:06
023400,19.0936, 06 Nov 2015, 02:34:36
023430,19.0932, 06 Nov 2015, 02:35:05
023500,19.0932, 06 Nov 2015, 02:35:35
023530,19.0945, 06 Nov 2015, 02:36:06
023600,19.096, 06 Nov 2015, 02:36:36
023630,19.098, 06 Nov 2015, 02:37:06
023700,19.1013, 06 Nov 2015, 02:37:35
023730,19.106, 06 Nov 2015, 02:38:06
023800,19.1119, 06 Nov 2015, 02:38:36
023830,19.1176, 06 Nov 2015, 02:39:05
023900,19.1229, 06 Nov 2015, 02:39:35
023930,19.1272, 06 Nov 2015, 02:40:05
024000,19.1295, 06 Nov 2015, 02:40:36
024030,19.1295, 06 Nov 2015, 02:41:06
024100,19.1274, 06 Nov 2015, 02:41:35
024130,19.123, 06 Nov 2015, 02:42:05
024200,19.1184, 06 Nov 2015, 02:42:35
024230,19.1136, 06 Nov 2015, 02:43:06
024300,19.1077, 06 Nov 2015, 02:43:36
024330,19.1025, 06 Nov 2015, 02:44:05
024400,19.0975, 06 Nov 2015, 02:44:35
024430,19.0952, 06 Nov 2015, 02:45:05
024500,19.093, 06 Nov 2015, 02:45:36
024530,19.0925, 06 Nov 2015, 02:46:06
024600,19.0929, 06 Nov 2015, 02:46:35
024630,19.0916, 06 Nov 2015, 02:47:05
024700,19.0894, 06 Nov 2015, 02:47:35
024730,19.086, 06 Nov 2015, 02:48:06
024800,19.0821, 06 Nov 2015, 02:48:36
024830,19.0784, 06 Nov 2015, 02:49:06
024900,19.0735, 06 Nov 2015, 02:49:36
024930,19.0675, 06 Nov 2015, 02:50:06
025000,19.0614, 06 Nov 2015, 02:50:36
025030,19.055, 06 Nov 2015, 02:51:06
025100,19.0489, 06 Nov 2015, 02:51:36
025130,19.0432, 06 Nov 2015, 02:52:06
025200,19.0379, 06 Nov 2015, 02:52:36
025230,19.0323, 06 Nov 2015, 02:53:06
025300,19.0278, 06 Nov 2015, 02:53:36
025330,19.0229, 06 Nov 2015, 02:54:06
025400,19.017, 06 Nov 2015, 02:54:36
025430,19.0091, 06 Nov 2015, 02:55:06
025500,19.0028, 06 Nov 2015, 02:55:37
025530,18.9968, 06 Nov 2015, 02:56:06
025600,18.9933, 06 Nov 2015, 02:56:36
025630,18.9915, 06 Nov 2015, 02:57:06
025700,18.9908, 06 Nov 2015, 02:57:37
025730,18.9904, 06 Nov 2015, 02:58:06
025800,18.9913, 06 Nov 2015, 02:58:36
025830,18.9912, 06 Nov 2015, 02:59:06
025900,18.9919, 06 Nov 2015, 02:59:35
025930,18.9928, 06 Nov 2015, 03:00:06
030000,18.9935, 06 Nov 2015, 03:00:36
030030,18.9956, 06 Nov 2015, 03:01:06
030100,18.998, 06 Nov 2015, 03:01:36
030130,19.0012, 06 Nov 2015, 03:02:05
030200,19.0041, 06 Nov 2015, 03:02:36
030230,19.0073, 06 Nov 2015, 03:03:06
030300,19.0114, 06 Nov 2015, 03:03:36
030330,19.0162, 06 Nov 2015, 03:04:06
030400,19.021, 06 Nov 2015, 03:04:36
030430,19.0251, 06 Nov 2015, 03:05:05
030500,19.0303, 06 Nov 2015, 03:05:36
030530,19.0344, 06 Nov 2015, 03:06:06
030600,19.037, 06 Nov 2015, 03:06:36
030630,19.0401, 06 Nov 2015, 03:07:06
030700,19.0417, 06 Nov 2015, 03:07:37
030730,19.0428, 06 Nov 2015, 03:08:06
030800,19.0426, 06 Nov 2015, 03:08:36
030830,19.0407, 06 Nov 2015, 03:09:06
030900,19.039, 06 Nov 2015, 03:09:36
030930,19.037, 06 Nov 2015, 03:10:05
031000,19.0342, 06 Nov 2015, 03:10:35
031030,19.0308, 06 Nov 2015, 03:11:06
031100,19.0266, 06 Nov 2015, 03:11:36
031130,19.0231, 06 Nov 2015, 03:12:06
031200,19.0203, 06 Nov 2015, 03:12:35
031230,19.0176, 06 Nov 2015, 03:13:05
031300,19.015, 06 Nov 2015, 03:13:36
031330,19.0139, 06 Nov 2015, 03:14:06
031400,19.0128, 06 Nov 2015, 03:14:36
031430,19.0127, 06 Nov 2015, 03:15:06
031500,19.0135, 06 Nov 2015, 03:15:35
031530,19.0142, 06 Nov 2015, 03:16:05
031600,19.0143, 06 Nov 2015, 03:16:36
031630,19.0152, 06 Nov 2015, 03:17:06
031700,19.0165, 06 Nov 2015, 03:17:36
031730,19.0182, 06 Nov 2015, 03:18:05
031800,19.0201, 06 Nov 2015, 03:18:35
031830,19.0223, 06 Nov 2015, 03:19:06
031900,19.0252, 06 Nov 2015, 03:19:36
031930,19.0275, 06 Nov 2015, 03:20:05
032000,19.0292, 06 Nov 2015, 03:20:35
032030,19.0316, 06 Nov 2015, 03:21:05
032100,19.0346, 06 Nov 2015, 03:21:36
032130,19.0372, 06 Nov 2015, 03:22:06
032200,19.0392, 06 Nov 2015, 03:22:35
032230,19.0425, 06 Nov 2015, 03:23:05
032300,19.0445, 06 Nov 2015, 03:23:35
032330,19.0464, 06 Nov 2015, 03:24:06
032400,19.0487, 06 Nov 2015, 03:24:36
032430,19.0504, 06 Nov 2015, 03:25:06
032500,19.0511, 06 Nov 2015, 03:25:35
032530,19.0523, 06 Nov 2015, 03:26:05
032600,19.0548, 06 Nov 2015, 03:26:35
032630,19.0566, 06 Nov 2015, 03:27:06
032700,19.0581, 06 Nov 2015, 03:27:36
032730,19.0589, 06 Nov 2015, 03:28:05
032800,19.0603, 06 Nov 2015, 03:28:35
032830,19.0613, 06 Nov 2015, 03:29:06
032900,19.0621, 06 Nov 2015, 03:29:36
032930,19.0624, 06 Nov 2015, 03:30:06
033000,19.0625, 06 Nov 2015, 03:30:36
033030,19.062, 06 Nov 2015, 03:31:06
033100,19.0621, 06 Nov 2015, 03:31:36
033130,19.0618, 06 Nov 2015, 03:32:07
033200,19.062, 06 Nov 2015, 03:32:36
033230,19.0613, 06 Nov 2015, 03:33:06
033300,19.0614, 06 Nov 2015, 03:33:36
033330,19.0616, 06 Nov 2015, 03:34:06
033400,19.0614, 06 Nov 2015, 03:34:38
033430,19.061, 06 Nov 2015, 03:35:06
033500,19.061, 06 Nov 2015, 03:35:36
033530,19.0599, 06 Nov 2015, 03:36:06
033600,19.0591, 06 Nov 2015, 03:36:36
033630,19.0582, 06 Nov 2015, 03:37:07
033700,19.0565, 06 Nov 2015, 03:37:36
033730,19.0559, 06 Nov 2015, 03:38:06
033800,19.055, 06 Nov 2015, 03:38:36
033830,19.0542, 06 Nov 2015, 03:39:06
033900,19.0531, 06 Nov 2015, 03:39:36
033930,19.0522, 06 Nov 2015, 03:40:06
034000,19.0522, 06 Nov 2015, 03:40:36
034030,19.0522, 06 Nov 2015, 03:41:06
034100,19.0526, 06 Nov 2015, 03:41:37
034130,19.0531, 06 Nov 2015, 03:42:06
034200,19.0549, 06 Nov 2015, 03:42:36
034230,19.0555, 06 Nov 2015, 03:43:06
034300,19.0562, 06 Nov 2015, 03:43:36
034330,19.0566, 06 Nov 2015, 03:44:06
034400,19.0569, 06 Nov 2015, 03:44:36
034430,19.056, 06 Nov 2015, 03:45:06
034500,19.0545, 06 Nov 2015, 03:45:36
034530,19.0508, 06 Nov 2015, 03:46:06
034600,19.0458, 06 Nov 2015, 03:46:36
034630,19.04, 06 Nov 2015, 03:47:06
034700,19.033, 06 Nov 2015, 03:47:36
034730,19.0217, 06 Nov 2015, 03:48:06
034800,19.0078, 06 Nov 2015, 03:48:36
034830,18.9951, 06 Nov 2015, 03:49:05
034900,18.9836, 06 Nov 2015, 03:49:36
034930,18.9745, 06 Nov 2015, 03:50:06
035000,18.97, 06 Nov 2015, 03:50:36
035030,18.9676, 06 Nov 2015, 03:51:05
035100,18.9669, 06 Nov 2015, 03:51:36
035130,18.9661, 06 Nov 2015, 03:52:06
035200,18.9648, 06 Nov 2015, 03:52:36
035230,18.9632, 06 Nov 2015, 03:53:05
035300,18.9608, 06 Nov 2015, 03:53:35
035330,18.9568, 06 Nov 2015, 03:54:06
035400,18.9526, 06 Nov 2015, 03:54:36
035430,18.9483, 06 Nov 2015, 03:55:06
035500,18.9432, 06 Nov 2015, 03:55:35
035530,18.9376, 06 Nov 2015, 03:56:06
035600,18.9311, 06 Nov 2015, 03:56:36
035630,18.9243, 06 Nov 2015, 03:57:06
035700,18.9173, 06 Nov 2015, 03:57:35
035730,18.9105, 06 Nov 2015, 03:58:06
035800,18.9048, 06 Nov 2015, 03:58:36
035830,18.8983, 06 Nov 2015, 03:59:05
035900,18.8925, 06 Nov 2015, 03:59:35
035930,18.8874, 06 Nov 2015, 04:00:05
040000,18.8816, 06 Nov 2015, 04:00:36
040030,18.8775, 06 Nov 2015, 04:01:06
040100,18.873, 06 Nov 2015, 04:01:35
040130,18.8699, 06 Nov 2015, 04:02:05
040200,18.8685, 06 Nov 2015, 04:02:36
040230,18.8674, 06 Nov 2015, 04:03:06
040300,18.867, 06 Nov 2015, 04:03:35
040330,18.8669, 06 Nov 2015, 04:04:05
040400,18.8662, 06 Nov 2015, 04:04:35
040430,18.8657, 06 Nov 2015, 04:05:06
040500,18.8665, 06 Nov 2015, 04:05:36
040530,18.8658, 06 Nov 2015, 04:06:05
040600,18.8656, 06 Nov 2015, 04:06:35
040630,18.8652, 06 Nov 2015, 04:07:05
040700,18.8642, 06 Nov 2015, 04:07:36
040730,18.8634, 06 Nov 2015, 04:08:06
040800,18.8633, 06 Nov 2015, 04:08:35
040830,18.8636, 06 Nov 2015, 04:09:05
040900,18.8633, 06 Nov 2015, 04:09:36
040930,18.8626, 06 Nov 2015, 04:10:05
041000,18.8628, 06 Nov 2015, 04:10:35
041030,18.8631, 06 Nov 2015, 04:11:05
041100,18.8643, 06 Nov 2015, 04:11:35
041130,18.8649, 06 Nov 2015, 04:12:06
041200,18.8666, 06 Nov 2015, 04:12:35
041230,18.8682, 06 Nov 2015, 04:13:05
041300,18.8699, 06 Nov 2015, 04:13:35
041330,18.8719, 06 Nov 2015, 04:14:06
041400,18.8741, 06 Nov 2015, 04:14:35
041430,18.876, 06 Nov 2015, 04:15:05
041500,18.8772, 06 Nov 2015, 04:15:35
041530,18.8778, 06 Nov 2015, 04:16:06
041600,18.8793, 06 Nov 2015, 04:16:35
041630,18.8799, 06 Nov 2015, 04:17:05
041700,18.8797, 06 Nov 2015, 04:17:35
041730,18.8789, 06 Nov 2015, 04:18:05
041800,18.878, 06 Nov 2015, 04:18:36
041830,18.8763, 06 Nov 2015, 04:19:06
041900,18.8749, 06 Nov 2015, 04:19:36
041930,18.8732, 06 Nov 2015, 04:20:06
042000,18.8715, 06 Nov 2015, 04:20:36
042030,18.8701, 06 Nov 2015, 04:21:06
042100,18.8683, 06 Nov 2015, 04:21:36
042130,18.8666, 06 Nov 2015, 04:22:06
042200,18.8649, 06 Nov 2015, 04:22:36
042230,18.8625, 06 Nov 2015, 04:23:06
042300,18.8607, 06 Nov 2015, 04:23:36
042330,18.8593, 06 Nov 2015, 04:24:06
042400,18.8584, 06 Nov 2015, 04:24:36
042430,18.8611, 06 Nov 2015, 04:25:06
042500,18.8662, 06 Nov 2015, 04:25:36
042530,18.8728, 06 Nov 2015, 04:26:06
042600,18.8782, 06 Nov 2015, 04:26:36
042630,18.8834, 06 Nov 2015, 04:27:06
042700,18.8867, 06 Nov 2015, 04:27:36
042730,18.8874, 06 Nov 2015, 04:28:06
042800,18.8877, 06 Nov 2015, 04:28:36
042830,18.8881, 06 Nov 2015, 04:29:05
042900,18.8885, 06 Nov 2015, 04:29:36
042930,18.888, 06 Nov 2015, 04:30:06
043000,18.8873, 06 Nov 2015, 04:30:36
043030,18.8869, 06 Nov 2015, 04:31:05
043100,18.8872, 06 Nov 2015, 04:31:36
043130,18.8885, 06 Nov 2015, 04:32:06
043200,18.8892, 06 Nov 2015, 04:32:36
043230,18.8905, 06 Nov 2015, 04:33:05
043300,18.8919, 06 Nov 2015, 04:33:36
043330,18.893, 06 Nov 2015, 04:34:06
043400,18.8939, 06 Nov 2015, 04:34:36
043430,18.8946, 06 Nov 2015, 04:35:05
043500,18.8948, 06 Nov 2015, 04:35:36
043530,18.8959, 06 Nov 2015, 04:36:06
043600,18.8956, 06 Nov 2015, 04:36:36
043630,18.8955, 06 Nov 2015, 04:37:06
043700,18.8952, 06 Nov 2015, 04:37:35
043730,18.8952, 06 Nov 2015, 04:38:06
043800,18.8959, 06 Nov 2015, 04:38:36
043830,18.8962, 06 Nov 2015, 04:39:05
043900,18.8975, 06 Nov 2015, 04:39:35
043930,18.8977, 06 Nov 2015, 04:40:06
044000,18.898, 06 Nov 2015, 04:40:36
044030,18.8978, 06 Nov 2015, 04:41:05
044100,18.8973, 06 Nov 2015, 04:41:35
044130,18.8972, 06 Nov 2015, 04:42:06
044200,18.8968, 06 Nov 2015, 04:42:36
044230,18.8972, 06 Nov 2015, 04:43:05
044300,18.8966, 06 Nov 2015, 04:43:35
044330,18.8973, 06 Nov 2015, 04:44:05
044400,18.8971, 06 Nov 2015, 04:44:36
044430,18.8978, 06 Nov 2015, 04:45:06
044500,18.898, 06 Nov 2015, 04:45:35
044530,18.898, 06 Nov 2015, 04:46:05
044600,18.8978, 06 Nov 2015, 04:46:36
044630,18.8981, 06 Nov 2015, 04:47:06
044700,18.8987, 06 Nov 2015, 04:47:35
044730,18.8989, 06 Nov 2015, 04:48:05
044800,18.8986, 06 Nov 2015, 04:48:36
044830,18.8981, 06 Nov 2015, 04:49:05
044900,18.8975, 06 Nov 2015, 04:49:35
044930,18.8983, 06 Nov 2015, 04:50:05
045000,18.8987, 06 Nov 2015, 04:50:36
045030,18.9001, 06 Nov 2015, 04:51:05
045100,18.9023, 06 Nov 2015, 04:51:35
045130,18.9026, 06 Nov 2015, 04:52:05
045200,18.9024, 06 Nov 2015, 04:52:35
045230,18.9028, 06 Nov 2015, 04:53:06
045300,18.9022, 06 Nov 2015, 04:53:35
045330,18.9014, 06 Nov 2015, 04:54:05
045400,18.9007, 06 Nov 2015, 04:54:35
045430,18.8997, 06 Nov 2015, 04:55:06
045500,18.8993, 06 Nov 2015, 04:55:35
045526,18.9, 06 Nov 2015, 04:56:02
045530,18.8999, 06 Nov 2015, 04:56:06
045600,18.9, 06 Nov 2015, 04:56:35
045630,18.8994, 06 Nov 2015, 04:57:06
045700,18.8992, 06 Nov 2015, 04:57:36
045730,18.8994, 06 Nov 2015, 04:58:06
045800,18.8994, 06 Nov 2015, 04:58:35
045830,18.9007, 06 Nov 2015, 04:59:06
045900,18.9018, 06 Nov 2015, 04:59:36
045930,18.9027, 06 Nov 2015, 05:00:06
050000,18.9039, 06 Nov 2015, 05:00:35
050030,18.9054, 06 Nov 2015, 05:01:05
050100,18.9061, 06 Nov 2015, 05:01:36
050130,18.9062, 06 Nov 2015, 05:02:06
050200,18.9064, 06 Nov 2015, 05:02:36
050230,18.9068, 06 Nov 2015, 05:03:05
050300,18.9083, 06 Nov 2015, 05:03:35
050330,18.9102, 06 Nov 2015, 05:04:06
050400,18.9106, 06 Nov 2015, 05:04:36
050430,18.9113, 06 Nov 2015, 05:05:06
050500,18.9119, 06 Nov 2015, 05:05:35
050530,18.9129, 06 Nov 2015, 05:06:06
050600,18.9136, 06 Nov 2015, 05:06:36
050630,18.9142, 06 Nov 2015, 05:07:05
050700,18.9134, 06 Nov 2015, 05:07:35
050730,18.9133, 06 Nov 2015, 05:08:05